Weather reports worldwide

Advertisment
London/Heathrow Intl, United Kingdom (3772): temperature & dewpoint: 21.06.2017 06:00:00 - 27.06.2017 06:00:00 (BST)London/Heathrow Intl, United Kingdom (3772): wind speed & gusts: 21.06.2017 06:00:00 - 27.06.2017 06:00:00 (BST)London/Heathrow Intl, United Kingdom (3772): wind direction: 21.06.2017 06:00:00 - 27.06.2017 06:00:00 (BST)London/Heathrow Intl, United Kingdom (3772): reduced air pressure: 21.06.2017 06:00:00 - 27.06.2017 06:00:00 (BST)London/Heathrow Intl, United Kingdom (3772): visibility: 21.06.2017 06:00:00 - 27.06.2017 06:00:00 (BST)London/Heathrow Intl, United Kingdom (3772): sunshine duration: 21.06.2017 06:00:00 - 27.06.2017 06:00:00 (BST)London/Heathrow Intl, United Kingdom (3772): precipitation: 21.06.2017 06:00:00 - 27.06.2017 06:00:00 (BST)
Date & Time tt [°C] td [°C] ff [km/h] ff [kn] fx [km/h] fx [kn] dd ppp [hPa] vv [km] sd [min] rr [mm]
27.06.2017 06:00:00 16,5 7,9 18 10 - - E 1009,5 10 0 0,0
27.06.2017 05:00:00 16,1 9,1 16 9 - - E 1010,0 10 0 0,0
27.06.2017 04:00:00 15,1 9,0 13 7 - - E 1010,5 10 0 0,0
27.06.2017 03:00:00 14,9 9,3 13 7 - - E 1011,0 10 0 0,0
27.06.2017 02:00:00 15,3 9,6 15 8 - - E 1011,9 10 0 0,0
27.06.2017 01:00:00 15,9 10,0 18 10 - - E 1012,0 10 - 0,0
27.06.2017 00:00:00 16,4 8,7 21 11 - - E 1012,3 10 0 0,0
26.06.2017 23:00:00 18,0 8,3 18 10 - - E 1012,4 10 0 0,0
26.06.2017 22:00:00 18,9 7,4 18 10 - - ESE 1012,3 10 0 0,0
26.06.2017 21:00:00 21,0 11,2 18 10 - - SSE 1012,0 10 0 0,0
26.06.2017 20:00:00 22,7 7,8 18 10 - - ENE 1011,7 10 0 0,0
26.06.2017 19:00:00 23,5 6,9 11 6 - - ESE 1011,9 10 0 0,0
26.06.2017 18:00:00 23,4 6,5 5 3 - - ESE 1012,0 40 30 0,0
26.06.2017 17:00:00 23,6 6,0 5 3 - - - 1012,3 10 60 0,0
26.06.2017 16:00:00 23,1 6,1 9 5 - - - 1012,9 10 60 0,0
26.06.2017 15:00:00 23,4 6,2 8 4 - - N 1013,4 10 60 0,0
26.06.2017 14:00:00 23,0 5,8 8 4 - - - 1014,1 10 54 0,0
26.06.2017 13:00:00 21,7 5,3 9 5 - - - 1014,7 10 60 0,0
26.06.2017 12:00:00 20,7 5,7 5 3 - - - 1014,9 10 60 0,0
26.06.2017 11:00:00 19,9 5,5 11 6 - - - 1014,5 10 60 0,0
26.06.2017 10:00:00 18,1 5,2 9 5 - - ENE 1014,9 30 60 0,0
26.06.2017 09:00:00 17,0 6,7 9 5 - - NE 1015,3 28 36 0,0
26.06.2017 08:00:00 16,4 7,9 8 4 - - NE 1015,5 10 54 0,0
26.06.2017 07:00:00 14,5 8,0 4 2 - - - 1015,4 10 12 0,0
26.06.2017 06:00:00 13,4 8,4 4 2 - - - 1015,0 10 0 0,0
26.06.2017 05:00:00 13,0 8,4 2 1 - - - 1014,8 10 0 0,0
26.06.2017 04:00:00 13,6 9,2 4 2 - - - 1014,6 10 0 0,0
26.06.2017 03:00:00 13,9 9,1 4 2 - - - 1014,9 10 0 0,0
26.06.2017 02:00:00 14,8 9,0 4 2 - - - 1014,7 10 0 0,0
26.06.2017 01:00:00 16,0 11,0 9 5 - - N 1014,6 10 - 0,0
26.06.2017 00:00:00 16,8 11,6 9 5 - - NW 1014,3 10 0 0,0
25.06.2017 23:00:00 17,9 12,3 18 10 - - W 1013,8 10 0 0,0
25.06.2017 22:00:00 17,7 11,8 18 10 - - W 1013,5 10 0 0,0
25.06.2017 21:00:00 18,6 11,8 22 12 - - W 1012,9 10 0 0,0
25.06.2017 20:00:00 19,4 12,0 21 11 - - WNW 1012,6 10 0 0,0
25.06.2017 19:00:00 20,5 11,1 28 15 - - W 1012,0 10 24 0,0
25.06.2017 18:00:00 22,2 11,6 29 16 52 28 W 1011,6 10 48 0,0
25.06.2017 17:00:00 22,5 12,7 31 17 50 27 W 1011,3 10 6 0,0
25.06.2017 16:00:00 22,2 12,4 31 17 - - W 1011,4 10 6 0,0
25.06.2017 15:00:00 22,1 12,9 28 15 - - WSW 1011,3 10 6 0,0
25.06.2017 14:00:00 22,6 13,3 26 14 - - WSW 1011,6 10 12 0,0
25.06.2017 13:00:00 22,3 13,6 22 12 - - SW 1011,9 10 12 0,0
25.06.2017 12:00:00 20,3 13,2 26 14 - - WSW 1012,6 10 0 0,0
25.06.2017 11:00:00 18,7 12,8 26 14 - - WSW 1012,8 10 0 0,0
25.06.2017 10:00:00 18,7 12,3 22 12 - - WSW 1012,8 10 6 0,0
25.06.2017 09:00:00 17,1 12,0 26 14 - - W 1012,8 10 0 0,0
25.06.2017 08:00:00 16,7 12,0 22 12 - - WSW 1012,7 10 12 0,0
25.06.2017 07:00:00 15,9 12,0 21 11 - - WSW 1012,6 10 0 0,0
25.06.2017 06:00:00 15,7 12,1 21 11 - - WSW 1012,4 10 0 0,0
25.06.2017 05:00:00 15,0 12,2 18 10 - - WSW 1012,2 10 0 0,0
25.06.2017 04:00:00 14,8 11,8 16 9 - - WSW 1012,4 10 0 0,0
25.06.2017 03:00:00 15,4 12,2 15 8 - - WSW 1012,5 10 0 0,0
25.06.2017 02:00:00 15,7 12,0 21 11 - - W 1012,6 10 0 0,0
25.06.2017 01:00:00 15,8 12,2 18 10 - - W 1012,6 10 - 0,0
25.06.2017 00:00:00 16,3 12,8 21 11 - - W 1012,7 10 0 0,0
24.06.2017 23:00:00 17,4 13,7 22 12 - - WSW 1012,5 10 0 0,0
24.06.2017 22:00:00 18,2 15,5 18 10 - - WSW 1012,3 10 0 0,0
24.06.2017 21:00:00 18,7 16,4 22 12 - - WSW 1012,1 10 0 0,0
24.06.2017 20:00:00 19,8 16,3 21 11 - - SW 1011,9 10 6 0,0
24.06.2017 19:00:00 20,2 16,4 22 12 - - SW 1012,0 10 0 0,0
24.06.2017 18:00:00 22,5 15,0 24 13 - - WSW 1012,0 10 0 0,0
24.06.2017 17:00:00 22,3 14,6 28 15 - - WSW 1012,5 10 0 0,0
24.06.2017 16:00:00 22,9 14,6 28 15 - - WSW 1012,7 40 12 0,0
24.06.2017 15:00:00 22,2 15,9 26 14 - - WSW 1013,0 30 0 0,0
24.06.2017 14:00:00 21,5 14,6 22 12 - - W 1013,5 45 0 0,0
24.06.2017 13:00:00 21,9 15,0 26 14 - - WSW 1013,8 10 6 0,0
24.06.2017 12:00:00 22,1 14,3 21 11 - - WSW 1013,8 10 6 0,0
24.06.2017 11:00:00 20,9 14,6 21 11 - - WSW 1014,0 10 6 0,0
24.06.2017 10:00:00 20,5 15,2 22 12 - - WSW 1014,2 10 0 0,0
24.06.2017 09:00:00 18,1 14,8 18 10 - - WSW 1014,7 10 0 0,0
24.06.2017 08:00:00 18,1 14,3 22 12 - - WSW 1014,6 10 0 0,0
24.06.2017 07:00:00 17,6 14,0 21 11 - - SW 1014,4 10 0 0,0
24.06.2017 06:00:00 17,2 13,8 21 11 - - SW 1014,6 10 0 0,0
24.06.2017 05:00:00 17,2 13,7 21 11 - - WSW 1014,5 10 0 0,0
24.06.2017 04:00:00 17,2 13,6 22 12 - - WSW 1014,6 10 0 0,0
24.06.2017 03:00:00 17,3 13,4 24 13 - - WSW 1015,0 10 0 0,0
24.06.2017 02:00:00 17,3 13,3 18 10 - - WSW 1015,5 10 0 0,0
24.06.2017 01:00:00 17,3 13,4 18 10 - - SW 1015,6 10 - 0,0
24.06.2017 00:00:00 17,6 13,7 22 12 - - SW 1015,8 10 0 0,0
23.06.2017 23:00:00 18,2 13,4 24 13 - - SW 1016,1 10 0 0,0
23.06.2017 22:00:00 19,3 13,4 26 14 - - SW 1016,1 10 0 0,0
23.06.2017 21:00:00 20,2 13,4 24 13 - - SW 1016,1 10 0 0,0
23.06.2017 20:00:00 20,7 13,0 26 14 - - WSW 1016,1 10 0 0,0
23.06.2017 19:00:00 21,6 12,7 24 13 46 25 WSW 1016,0 10 6 0,0
23.06.2017 18:00:00 22,3 12,3 24 13 46 25 W 1016,1 10 0 0,0
23.06.2017 17:00:00 22,1 11,3 28 15 - - WSW 1016,2 10 6 0,0
23.06.2017 16:00:00 22,8 11,5 31 17 - - WSW 1016,1 10 18 0,0
23.06.2017 15:00:00 23,5 11,7 31 17 - - WSW 1016,2 10 12 0,0
23.06.2017 14:00:00 24,5 12,2 28 15 48 26 W 1016,2 10 54 0,0
23.06.2017 13:00:00 23,7 11,3 31 17 48 26 W 1016,3 10 54 0,0
23.06.2017 12:00:00 22,0 11,2 31 17 - - WSW 1016,4 10 42 0,0
23.06.2017 11:00:00 21,2 10,9 29 16 - - WSW 1016,6 10 48 0,0
23.06.2017 10:00:00 19,7 10,9 24 13 - - WSW 1016,5 10 48 0,0
23.06.2017 09:00:00 16,9 9,9 31 17 - - W 1016,7 10 42 0,0
23.06.2017 08:00:00 16,2 10,5 26 14 - - W 1016,1 10 60 0,0
23.06.2017 07:00:00 14,7 10,5 18 10 - - WSW 1015,8 10 36 0,0
23.06.2017 06:00:00 13,5 10,6 15 8 - - WSW 1015,7 10 0 0,0
23.06.2017 05:00:00 13,2 11,0 15 8 - - WSW 1015,8 10 0 0,0
23.06.2017 04:00:00 13,5 11,4 15 8 - - W 1015,6 10 0 0,0
23.06.2017 03:00:00 14,1 11,3 16 9 - - W 1015,4 10 0 0,0
23.06.2017 02:00:00 14,7 11,3 16 9 - - W 1015,3 10 0 0,0
23.06.2017 01:00:00 16,0 12,5 18 10 - - W 1015,2 10 - 0,0
23.06.2017 00:00:00 17,1 13,6 21 11 - - W 1014,8 10 0 0,0
22.06.2017 23:00:00 18,4 14,1 18 10 - - W 1014,7 10 0 0,0
22.06.2017 22:00:00 19,4 14,3 16 9 - - WSW 1014,1 10 0 0,0
22.06.2017 21:00:00 20,3 14,1 21 11 - - WSW 1013,5 10 0 0,0
22.06.2017 20:00:00 21,5 13,8 22 12 - - WSW 1013,1 10 6 0,0
22.06.2017 19:00:00 22,7 13,6 22 12 - - W 1012,9 10 24 0,0
22.06.2017 18:00:00 22,2 14,1 22 12 - - W 1012,8 10 0 0,0
22.06.2017 17:00:00 22,6 14,2 18 10 - - W 1012,5 10 0 0,0
22.06.2017 16:00:00 22,1 14,0 26 14 46 25 W 1012,1 10 0 0,0
22.06.2017 15:00:00 22,7 14,0 31 17 - - W 1012,0 10 6 0,0
22.06.2017 14:00:00 22,1 13,4 24 13 46 25 W 1011,8 10 6 0,0
22.06.2017 13:00:00 23,1 13,6 29 16 - - W 1011,4 10 24 0,0
22.06.2017 12:00:00 22,9 14,3 26 14 - - WSW 1011,3 10 18 0,0
22.06.2017 11:00:00 21,4 14,5 28 15 - - W 1011,9 10 6 0,0
22.06.2017 10:00:00 20,3 15,4 21 11 - - W 1011,2 10 0 0,0
22.06.2017 09:00:00 19,8 16,5 18 10 - - SW 1011,3 8 0 0,0
22.06.2017 08:00:00 19,1 16,4 21 11 - - WSW 1011,4 6 0 0,0
22.06.2017 07:00:00 18,5 16,0 22 12 - - W 1011,1 5 0 0,0
22.06.2017 06:00:00 18,6 15,6 18 10 - - WSW 1010,7 9 0 0,0
22.06.2017 05:00:00 19,3 15,7 15 8 - - WSW 1010,5 10 0 0,0
22.06.2017 04:00:00 20,1 16,3 13 7 - - SW 1010,8 10 0 0,0
22.06.2017 03:00:00 20,6 17,0 15 8 - - SW 1011,1 10 0 0,0
22.06.2017 02:00:00 21,5 17,6 13 7 - - SW 1011,5 10 0 0,0
22.06.2017 01:00:00 22,3 17,8 15 8 - - SW 1011,5 10 - 0,0
22.06.2017 00:00:00 23,5 18,2 16 9 - - SW 1011,7 10 0 0,0
21.06.2017 23:00:00 24,5 18,7 16 9 - - SSW 1011,6 10 0 0,0
21.06.2017 22:00:00 26,2 19,0 16 9 - - SSW 1011,7 10 0 0,0
21.06.2017 21:00:00 27,8 18,6 18 10 - - SSW 1011,5 10 24 0,0
21.06.2017 20:00:00 29,2 18,3 18 10 - - S 1011,5 10 54 0,0
21.06.2017 19:00:00 31,8 16,5 21 11 - - SSW 1011,5 10 60 0,0
21.06.2017 18:00:00 32,8 15,6 18 10 - - SSW 1011,4 10 60 0,0
21.06.2017 17:00:00 33,9 16,2 16 9 - - S 1011,9 10 60 0,0
21.06.2017 16:00:00 33,8 15,6 18 10 - - SSE 1012,1 10 60 0,0
21.06.2017 15:00:00 32,7 16,5 13 7 - - SSE 1012,9 10 54 0,0
21.06.2017 14:00:00 33,2 17,6 13 7 - - SSE 1013,6 10 60 0,0
21.06.2017 13:00:00 30,2 18,4 11 6 - - ESE 1014,2 17 - -
21.06.2017 12:00:00 28,3 18,2 11 6 - - E 1014,8 10 - -
21.06.2017 11:00:00 26,8 17,8 13 7 - - E 1015,1 10 60 0,0
21.06.2017 10:00:00 24,3 17,0 13 7 - - E 1015,6 10 60 0,0
21.06.2017 09:00:00 22,5 16,7 13 7 - - E 1016,0 10 60 0,0
21.06.2017 08:00:00 20,2 16,1 11 6 - - ENE 1016,4 10 36 0,0
21.06.2017 07:00:00 18,0 15,1 8 4 - - ENE 1016,6 10 0 0,0
21.06.2017 06:00:00 17,1 14,8 8 4 - - NE 1016,7 10 0 0,0

tt = temperature
td = dewpoint
ff = wind speed
fx = gusts
dd = wind direction
ppp = reduced air pressure
vv = visibility
sd = sunshine duration
rr = precipitation

Next stations